Previsão horária em Bolshie Knyazikovcy

Hoje, 5 Março, Sexta-feira

Tempo Temperatura Precipitação Vento Pressão Humidade
00:00 -6°C° 0 mm 3 m/s 745 mmHg 84%
01:00 -5°C° 0 mm 2 m/s 746 mmHg 84%
02:00 -6°C° 0 mm 2 m/s 746 mmHg 85%
03:00 -6°C° 0 mm 2 m/s 746 mmHg 85%
04:00 -6°C° 0 mm 2 m/s 746 mmHg 84%
05:00 -6°C° 0 mm 2 m/s 746 mmHg 84%
06:00 -6°C° 0 mm 2 m/s 747 mmHg 83%
07:00 -5°C° 0 mm 2 m/s 747 mmHg 82%
08:00 -6°C° 0 mm 3 m/s 747 mmHg 81%
09:00 -5°C° 0 mm 3 m/s 747 mmHg 76%
10:00 -4°C° 0 mm 4 m/s 748 mmHg 71%
11:00 -3°C° 0 mm 4 m/s 748 mmHg 67%
12:00 -3°C° 0 mm 4 m/s 748 mmHg 61%
13:00 -2°C° 0 mm 5 m/s 749 mmHg 55%
14:00 -2°C° 0 mm 5 m/s 749 mmHg 50%
15:00 -3°C° 0 mm 4 m/s 749 mmHg 51%
16:00 -2°C° 0 mm 3 m/s 749 mmHg 52%
17:00 -2°C° 0 mm 2 m/s 750 mmHg 53%
18:00 -3°C° 0 mm 2 m/s 750 mmHg 55%
19:00 -4°C° 0 mm 2 m/s 750 mmHg 58%
20:00 -5°C° 0 mm 2 m/s 751 mmHg 60%
21:00 -5°C° 0 mm 2 m/s 751 mmHg 61%
22:00 -5°C° 0 mm 2 m/s 751 mmHg 62%
23:00 -5°C° 0 mm 3 m/s 752 mmHg 62%

Amanhã, 6 Março, Sábado

Tempo Temperatura Precipitação Vento Pressão Humidade
00:00 -5°C° 0 mm 3 m/s 752 mmHg 68%
01:00 -5°C° 0 mm 3 m/s 752 mmHg 73%
02:00 -5°C° 0 mm 4 m/s 752 mmHg 78%
03:00 -7°C° 0 mm 4 m/s 752 mmHg 81%
04:00 -7°C° 0 mm 4 m/s 752 mmHg 84%
05:00 -7°C° 0 mm 4 m/s 752 mmHg 87%
06:00 -7°C° 0 mm 4 m/s 753 mmHg 86%
07:00 -7°C° 0 mm 4 m/s 753 mmHg 85%
08:00 -7°C° 0 mm 4 m/s 754 mmHg 83%
09:00 -5°C° 0 mm 4 m/s 754 mmHg 76%
10:00 -5°C° 0 mm 4 m/s 754 mmHg 69%
11:00 -4°C° 0 mm 4 m/s 755 mmHg 62%
12:00 -3°C° 0 mm 4 m/s 755 mmHg 56%
13:00 -3°C° 0 mm 4 m/s 755 mmHg 51%
14:00 -2°C° 0 mm 4 m/s 754 mmHg 46%
15:00 -3°C° 0 mm 4 m/s 754 mmHg 49%
16:00 -3°C° 0 mm 4 m/s 754 mmHg 53%
17:00 -3°C° 0 mm 4 m/s 753 mmHg 56%
18:00 -3°C° 0 mm 4 m/s 753 mmHg 60%
19:00 -4°C° 0 mm 4 m/s 752 mmHg 64%
20:00 -5°C° 0 mm 5 m/s 752 mmHg 67%
21:00 -5°C° 0 mm 5 m/s 751 mmHg 67%
22:00 -5°C° 0 mm 6 m/s 750 mmHg 67%
23:00 -6°C° 0 mm 7 m/s 749 mmHg 67%

Depois de amanhã, 7 Março, Domingo

Tempo Temperatura Precipitação Vento Pressão Humidade
00:00 -4°C° 0 mm 7 m/s 748 mmHg 69%
01:00 -5°C° 0 mm 8 m/s 748 mmHg 71%
02:00 -5°C° 0 mm 8 m/s 747 mmHg 73%
03:00 -5°C° 0.1 mm 9 m/s 746 mmHg 80%
04:00 -4°C° 0.1 mm 9 m/s 744 mmHg 86%
05:00 -4°C° 0.1 mm 9 m/s 743 mmHg 92%
06:00 -4°C° 0.3 mm 9 m/s 743 mmHg 92%
07:00 -4°C° 0.3 mm 9 m/s 743 mmHg 92%
08:00 -4°C° 0.3 mm 9 m/s 743 mmHg 93%
09:00 -4°C° 0.6 mm 8 m/s 743 mmHg 93%
10:00 -3°C° 0.6 mm 7 m/s 743 mmHg 93%
11:00 -3°C° 0.6 mm 6 m/s 743 mmHg 93%
12:00 -3°C° 0.2 mm 6 m/s 743 mmHg 88%
13:00 -2°C° 0.2 mm 6 m/s 743 mmHg 82%
14:00 -2°C° 0.2 mm 7 m/s 743 mmHg 77%
15:00 -2°C° 0.2 mm 7 m/s 742 mmHg 79%
16:00 -3°C° 0.2 mm 7 m/s 742 mmHg 81%
17:00 -3°C° 0.2 mm 6 m/s 742 mmHg 83%
18:00 -4°C° 0 mm 6 m/s 742 mmHg 81%
19:00 -4°C° 0 mm 5 m/s 742 mmHg 79%
20:00 -5°C° 0 mm 5 m/s 742 mmHg 77%
21:00 -5°C° 0 mm 5 m/s 742 mmHg 75%
22:00 -5°C° 0 mm 4 m/s 742 mmHg 74%
23:00 -5°C° 0 mm 4 m/s 743 mmHg 72%

8 Março, Segunda-feira

Tempo Temperatura Precipitação Vento Pressão Humidade
00:00 -5°C° 0 mm 4 m/s 743 mmHg 73%
01:00 -5°C° 0 mm 4 m/s 743 mmHg 73%
02:00 -7°C° 0 mm 4 m/s 743 mmHg 73%
03:00 -7°C° 0 mm 4 m/s 743 mmHg 75%
04:00 -6°C° 0 mm 3 m/s 743 mmHg 78%
05:00 -6°C° 0 mm 3 m/s 743 mmHg 80%
06:00 -6°C° 0 mm 3 m/s 744 mmHg 80%
07:00 -6°C° 0 mm 3 m/s 744 mmHg 81%
08:00 -6°C° 0 mm 3 m/s 745 mmHg 81%
09:00 -6°C° 0 mm 3 m/s 745 mmHg 76%
10:00 -5°C° 0 mm 3 m/s 746 mmHg 72%
11:00 -5°C° 0 mm 3 m/s 746 mmHg 68%
12:00 -5°C° 0 mm 3 m/s 746 mmHg 64%
13:00 -4°C° 0 mm 3 m/s 747 mmHg 60%
14:00 -4°C° 0 mm 3 m/s 747 mmHg 56%
15:00 -4°C° 0 mm 4 m/s 747 mmHg 55%
16:00 -5°C° 0 mm 4 m/s 747 mmHg 54%
17:00 -5°C° 0 mm 4 m/s 747 mmHg 54%
18:00 -7°C° 0 mm 4 m/s 748 mmHg 60%
19:00 -6°C° 0 mm 3 m/s 748 mmHg 66%
20:00 -7°C° 0 mm 3 m/s 749 mmHg 72%
21:00 -7°C° 0 mm 3 m/s 750 mmHg 73%
22:00 -8°C° 0 mm 4 m/s 750 mmHg 73%
23:00 -9°C° 0 mm 4 m/s 750 mmHg 74%

9 Março, Terça-feira

Tempo Temperatura Precipitação Vento Pressão Humidade
00:00 -9°C° 0 mm 4 m/s 751 mmHg 75%
01:00 -9°C° 0 mm 4 m/s 751 mmHg 75%
02:00 -9°C° 0 mm 3 m/s 752 mmHg 76%
03:00 -9°C° 0 mm 3 m/s 752 mmHg 76%
04:00 -9°C° 0 mm 3 m/s 752 mmHg 77%
05:00 -10°C° 0 mm 3 m/s 753 mmHg 77%
06:00 -11°C° 0 mm 4 m/s 753 mmHg 76%
07:00 -11°C° 0 mm 4 m/s 753 mmHg 74%
08:00 -11°C° 0 mm 4 m/s 754 mmHg 73%
09:00 -11°C° 0 mm 4 m/s 754 mmHg 69%
10:00 -10°C° 0 mm 4 m/s 755 mmHg 65%
11:00 -8°C° 0 mm 3 m/s 755 mmHg 60%
12:00 -8°C° 0 mm 3 m/s 755 mmHg 56%
13:00 -7°C° 0 mm 3 m/s 756 mmHg 52%
14:00 -7°C° 0 mm 3 m/s 756 mmHg 48%
15:00 -7°C° 0 mm 3 m/s 756 mmHg 48%
16:00 -7°C° 0 mm 3 m/s 756 mmHg 49%
17:00 -7°C° 0 mm 3 m/s 756 mmHg 49%
18:00 -7°C° 0 mm 2 m/s 757 mmHg 53%
19:00 -7°C° 0 mm 2 m/s 757 mmHg 57%
20:00 -7°C° 0 mm 1 m/s 758 mmHg 61%
21:00 -7°C° 0 mm 1 m/s 758 mmHg 62%
22:00 -7°C° 0 mm 1 m/s 758 mmHg 63%
23:00 -7°C° 0 mm 1 m/s 759 mmHg 64%

10 Março, Quarta-feira

Tempo Temperatura Precipitação Vento Pressão Humidade
00:00 -8°C° 0 mm 1 m/s 759 mmHg 66%
01:00 -8°C° 0 mm 1 m/s 759 mmHg 67%
02:00 -9°C° 0 mm 2 m/s 759 mmHg 68%
03:00 -9°C° 0 mm 2 m/s 759 mmHg 70%
04:00 -10°C° 0 mm 2 m/s 758 mmHg 72%
05:00 -10°C° 0 mm 2 m/s 758 mmHg 74%
06:00 -10°C° 0 mm 2 m/s 758 mmHg 72%
07:00 -10°C° 0 mm 3 m/s 759 mmHg 71%
08:00 -10°C° 0 mm 3 m/s 759 mmHg 70%
09:00 -9°C° 0 mm 3 m/s 759 mmHg 64%
10:00 -9°C° 0 mm 4 m/s 758 mmHg 59%
11:00 -7°C° 0 mm 4 m/s 758 mmHg 53%
12:00 -7°C° 0 mm 4 m/s 758 mmHg 51%
13:00 -6°C° 0 mm 5 m/s 757 mmHg 49%
14:00 -5°C° 0 mm 5 m/s 757 mmHg 47%
15:00 -5°C° 0 mm 5 m/s 756 mmHg 48%
16:00 -5°C° 0 mm 5 m/s 756 mmHg 48%
17:00 -5°C° 0 mm 5 m/s 755 mmHg 49%
18:00 -6°C° 0 mm 5 m/s 755 mmHg 51%
19:00 -5°C° 0 mm 4 m/s 755 mmHg 54%
20:00 -7°C° 0 mm 4 m/s 755 mmHg 56%
21:00 -7°C° 0 mm 5 m/s 754 mmHg 55%
22:00 -7°C° 0 mm 5 m/s 754 mmHg 54%
23:00 -7°C° 0 mm 5 m/s 753 mmHg 53%
Mostrar mais